Location: Choisy
(48.7685°N, 2.4187°E)
Time: 21:25:22
(UTC+00:00)

ATLAS 3B R/B - Pass Details

Date: 31 May 2022
Orbit: 976 x 1218 km, 63.8° (Epoch: 20 June)

Event Time Altitude Azimuth Distance (km) Brightness Sun altitude
Rises 22:32:50 0° 311° (NW) 4,000 6.7 -17.2°
Reaches altitude 10° 22:36:16 10° 296° (WNW) 3,074 5.7 -17.4°
Maximum altitude 22:41:17 20° 252° (WSW) 2,439 4.6 -17.7°
Enters shadow 22:45:59 11° 212° (SSW) 3,044 4.7 -17.9°
